User: anonymous   Login
Location: Unspecified
(0.0000°N, 0.0000°E)
Time: 05:07:04
(UTC+00:00)
Language:

APRIZESAT 3 - Orbit

View from above orbital plane
View from above orbital plane
View from above satellite
View from above satellite

Ground track
Ground track

The orbit data is extracted from the following two-line orbital elements,

1 35686U 09041F   17053.90002536  .00000316  00000-0  40489-4 0  9992
2 35686  98.2713  48.6663 0073913  25.8984 334.5900 14.87021061410203
Epoch (UTC): 22 February 2017 21:36:02
Eccentricity: 0.0073913
inclination: 98.2713°
perigee height: 555 km
apogee height: 659 km
right ascension of ascending node: 48.6663°
argument of perigee: 25.8984°
revolutions per day: 14.87021061
mean anomaly at epoch: 334.5900°
orbit number at epoch: 41020

The dashed part of the orbit path shows where the satellite is in the earth's shadow,  

DLR